Location: ??
(35.4328°N, 139.2826°E)
Time: 06:14:11
(UTC+00:00)

Daily predictions for brighter satellites

Satellite Brightness Start Highest point End
(mag) Time Altitude Azimuth Time Altitude Azimuth Time Altitude Azimuth
FALCON 9 R/B 4.4 18:11:37 18° ESE 18:11:37 18° ESE 18:12:31 10° ESE
Atlas Centaur 2 4.1 18:29:32 34° SE 18:29:32 34° SE 18:35:38 10° E
Cosmos 2219 Rocket 4.3 18:49:23 17° NNE 18:49:23 17° NNE 18:50:39 10° NNE
CZ-3A R/B 4.4 18:44:59 46° SSW 18:45:49 46° SSW 18:55:39 10° SE
Cosmos 2333 Rocket 4.4 18:50:33 16° NNE 18:50:33 16° NNE 18:51:37 10° NNE
CZ-2C R/B 4.4 18:51:29 12° ESE 18:51:29 12° ESE 18:51:56 10° E
CZ-3 Stage 3 4.5 18:57:11 10° ESE 18:57:11 10° ESE 18:57:14 10° ESE
ATLAS 2A CENTAUR R/B 4.2 19:06:15 26° SSE 19:06:15 26° SSE 19:12:41 10° ESE
COSMOS 2428 4.0 19:08:55 31° NNE 19:08:55 31° NNE 19:11:45 10° NNE
OAO 2 Rocket 4.2 19:19:06 46° E 19:19:06 46° E 19:22:34 10° E
ADEOS 4.0 19:20:55 10° NNE 19:32:36 - S 19:25:02 56° NNE
Meteor 2-10 4.3 19:22:54 10° S 19:28:33 72° E 19:34:04 10° NNE
COSMO-SKYMED 1 4.1 19:28:02 10° SE 19:31:58 35° ENE 19:34:33 18° NNE
SJ 16-02 2.8 19:36:23 27° S 19:36:23 27° S 19:38:25 10° SSE
IRIDIUM 106 4.2 19:29:56 10° S 19:35:08 84° E 19:40:23 10° N
GPS 2-04 Rocket1 3.9 19:36:32 39° SE 19:36:32 39° SE 19:39:21 10° ESE
Lacrosse 4 Rocket 4.4 19:35:39 10° SE 19:38:16 16° ESE 19:40:55 10° ENE
Cosmos 1763 Rocket 3.9 19:42:05 48° N 19:42:05 48° N 19:45:55 10° NNE
Meteor 1-24 Rocket 3.9 19:48:07 51° SW 19:48:07 51° SW 19:52:51 10° S
Cosmos 841 Rocket 3.9 19:42:18 10° S 19:47:20 60° ESE 19:52:24 10° NNE
Cosmos 1544 Rocket 4.3 19:43:54 10° S 19:48:04 51° E 19:52:16 10° NNE
Cosmos 1844 4.5 19:50:52 35° SW 19:50:52 35° SW 19:54:47 10° S
USA 276 4.1 19:51:21 24° SE 19:51:21 24° SE 19:52:46 10° SE
SL-4 R/B 3.1 19:51:06 31° SSE 19:52:05 37° SE 19:55:42 10° ENE
Cosmos 1898 Rocket 3.7 19:51:06 22° N 19:54:28 68° ENE 19:59:36 10° SSE
Cosmos 1570 Rocket 4.2 19:58:07 10° S 20:03:18 70° ESE 20:08:31 10° NNE
Gbstr 26 Del rocket 4.4 20:00:04 19° SW 20:05:35 90° NW 20:13:44 10° NE
Okean 1-7 Rocket 3.7 20:01:30 10° N 20:06:03 74° E 20:10:30 10° SSE
ERS-2 2.6 20:03:12 10° SSE 20:06:48 59° ENE 20:09:18 18° N
Cosmos 1844 Rocket 4.4 20:10:20 15° SW 20:10:20 15° SW 20:11:43 10° SSW
CZ-4B R/B 2.1 20:06:38 10° S 20:09:02 41° SSW 20:09:02 41° SSW
BREEZE-M DEB (TANK) 4.2 20:05:14 20° NW 20:10:24 39° NNE 20:13:51 10° E
NOSS 3-2 (A) 4.4 20:05:48 10° S 20:10:54 43° ESE 20:16:33 10° NE
SL-16 R/B 3.9 20:07:48 10° SSE 20:12:51 35° ESE 20:17:55 10° NE
Meteor PRIRODA 3.4 20:09:29 10° N 20:13:06 77° WNW 20:16:42 10° SSW
Cosmos 1455 Rocket 3.3 20:10:40 10° SSW 20:15:19 42° WNW 20:18:59 10° N
Cosmos 1953 2.1 20:12:26 10° SSW 20:16:24 74° W 20:20:23 10° N
ATLAS CENTAUR R/B 2.5 20:13:15 10° S 20:16:46 38° ESE 20:20:12 10° NE
Cosmos 1908 3.4 20:13:28 10° S 20:17:14 68° E 20:21:01 10° NNE
Atlas Centaur 2 3.4 20:12:08 22° WSW 20:17:30 59° S 20:25:51 10° E
Cosmos 2278 Rocket 2.4 20:13:54 10° NNW 20:19:34 71° ENE 20:25:13 10° SSE
SKYMED 2 3.5 20:15:36 10° S 20:19:52 61° W 20:23:08 17° NNW
Meteor 1-21 Rocket 4.4 20:16:25 10° N 20:22:11 79° E 20:28:01 10° SSE
Cosmos 2208 Rocket 4.1 20:18:31 10° SSW 20:23:58 89° ESE 20:29:25 10° NNE
Cosmos 2237 Rocket 2.2 20:19:17 10° SW 20:24:50 58° WNW 20:30:27 10° NNE
Cosmos 1814 Rocket 3.8 20:20:41 10° SSW 20:25:49 80° WNW 20:30:57 10° NNE
CZ-2C R/B 1.4 20:25:49 28° WSW 20:27:53 67° SSE 20:31:48 10° E
Cosmos 1937 Rocket 3.4 20:22:56 10° NNW 20:28:13 82° WSW 20:33:25 10° SSE
NOSS 0 Rocket 4.2 20:22:31 10° SW 20:28:23 44° WNW 20:34:15 10° N
Cosmos 2219 Rocket 3.9 20:31:09 15° NW 20:31:09 15° NW 20:32:59 10° NNW
Cosmos 2333 Rocket 4.0 20:32:36 13° NNW 20:32:36 13° NNW 20:33:52 10° NNW
USA 307 3.2 20:28:42 10° SW 20:32:53 67° SE 20:37:05 10° NE
deb Chang Zheng 4 4.1 20:30:06 10° N 20:33:54 33° WNW 20:37:42 10° SW
Envisat 3.0 20:29:01 10° NNE 20:34:07 90° ESE 20:39:12 10° SSW
GEOS 3 Rocket 3.8 20:30:36 10° SE 20:35:55 80° NE 20:41:20 10° NNW
BREEZE M DEB (TANK) 1.2 20:37:13 45° W 20:37:37 56° NW 20:40:21 10° NE
PSLV R/B 3.8 20:35:08 10° S 20:39:11 70° WSW 20:43:19 10° NNW
Cosmos 44 Rocket 3.5 20:35:43 10° NNW 20:40:54 86° ENE 20:46:04 10° SSE
USA 308 2.9 20:37:24 10° SW 20:41:37 82° SE 20:45:50 10° NE
NOAA 6 4.2 20:36:35 10° NNE 20:41:48 76° ESE 20:46:58 10° S
USA 305 2.9 20:37:39 10° SW 20:41:54 87° SE 20:46:09 10° NE
Okean O Rocket 3.5 20:38:33 10° NNE 20:42:30 33° E 20:46:25 10° SSE
CENTAUR R/B 3.3 20:42:06 10° S 20:47:27 52° ESE 20:53:42 10° NE
MOS 1 Rocket 3.7 20:44:00 10° S 20:48:54 45° W 20:53:33 10° NNW
Cosmos 1340 2.6 20:46:26 10° N 20:50:12 88° W 20:53:57 10° S
SAR-Lupe-4 3.9 20:47:00 10° S 20:50:26 44° W 20:53:53 10° NNW
COSMOS 2428 4.3 20:51:01 14° NW 20:51:01 14° NW 20:53:44 10° NNW
Cosmos 1602 Rocket 3.6 20:47:52 10° N 20:52:21 89° WNW 20:56:49 10° S
Cosmos 540 Rocket 4.3 20:49:09 10° SW 20:53:30 28° WNW 20:57:54 10° N
OAO 1 Rocket 4.5 20:49:19 16° W 20:53:38 87° S 20:58:58 10° E
USA 306 2.8 20:49:31 10° SW 20:53:46 73° NW 20:58:01 10° NE
Cosmos 1980 4.5 20:53:14 10° WSW 20:58:03 28° WNW 21:02:55 10° N
SL-8 R/B 4.0 20:54:23 12° NW 20:58:46 64° NE 21:03:33 10° ESE
Cosmos 1703 3.3 20:55:09 10° NNW 20:58:59 58° W 21:02:49 10° S
Spot 2 3.8 20:57:28 10° N 21:01:29 71° WNW 21:05:33 10° SSW
SMAP 3.2 20:57:12 10° NNE 21:01:53 84° ESE 21:06:31 10° S
OAO 2 Rocket 3.3 20:58:03 13° W 21:02:23 79° S 21:07:19 10° ESE
USA 238 DEB 3.6 20:56:17 10° SSW 21:02:47 87° WNW 21:09:35 10° NNE
USA 238 3.6 20:56:24 10° SSW 21:02:54 88° WNW 21:09:42 10° NNE
CZ-4B R/B 4.3 21:03:25 10° NW 21:05:24 14° WNW 21:07:24 10° WSW
BREEZE-M DEB (TANK) 3.7 21:03:27 13° W 21:06:01 34° NNW 21:13:39 10° NE
Cosmos 1346 Rocket 3.7 21:02:56 10° N 21:06:50 52° E 21:10:42 10° SSE
COSMO-SKYMED 1 4.1 21:05:25 10° SW 21:08:12 17° W 21:10:59 10° NW
H-2A R/B 4.1 21:06:13 10° NNW 21:08:47 18° WNW 21:11:22 10° WSW
OAO 3 Copernicus 4.5 21:07:29 10° WSW 21:12:32 76° S 21:17:36 10° E
Lacrosse 5 rocket 1.8 21:09:09 10° NNW 21:12:52 50° NE 21:16:25 10° ESE
FALCON 9 DEB 4.3 21:13:02 10° SSW 21:15:58 41° SE 21:18:55 10° ENE
Lacrosse 4 Rocket 2.0 21:12:43 10° SW 21:16:34 35° WNW 21:20:33 10° N
MOS 1-B 4.4 21:11:52 10° N 21:17:34 62° WNW 21:23:14 10° SSW
CZ-4B DEB 4.5 21:14:03 10° N 21:19:23 49° WNW 21:24:42 10° SW
Radarsat Rocket 4.4 21:12:48 10° NNE 21:20:28 80° WNW 21:27:09 10° SSW
Cosmos 1939 Rocket 3.6 21:16:51 10° NNE 21:20:43 58° E 21:24:30 10° S
Cosmos 1092 Rocket 4.1 21:17:20 10° NNW 21:23:16 53° W 21:29:14 10° SSW
Cosmos 1400 Rocket 4.1 21:21:06 10° WSW 21:24:10 20° WNW 21:27:17 10° NNW
YAOGAN 6 4.1 21:22:08 10° NNW 21:24:40 18° WNW 21:27:12 10° WSW
Cosmos 2150 Rocket 4.2 21:20:18 10° NNW 21:25:40 84° ENE 21:31:06 10° SSE
Cosmos 2279 Rocket 4.0 21:22:01 10° S 21:28:15 82° W 21:34:32 10° N
